Location: Newark
(48.5156°N, 1.8989°W)
Time: 08:13:18
(UTC+00:00)

Transit 4A - Pass Details

Date: 28 November 2019
Orbit: 870 x 975 km, 66.8° (Epoch: 11 December)

Event Time Altitude Azimuth Distance (km) Brightness Sun altitude
Rises 18:18:52 0° 161° (SSE) 3,624 10.9 -19.6°
Reaches altitude 10° 18:22:21 10° 142° (SE) 2,666 10.0 -20.2°
Enters shadow 18:22:42 11° 139° (SE) 2,590 9.9 -20.2°
